Weather History for St. Johns, AZ

Change the Weather History Date:

Friday, October 12, 2012

  Actual Average (KSOW) Record (KSOW)
Temperature  
Mean Temperature 40 °F -  
Max Temperature 45 °F 67 °F 81 °F (1998)
Min Temperature 36 °F 44 °F 21 °F (1982)
Degree Days  
Heating Degree Days 24    
Moisture  
Dew Point 38 °F    
Average Humidity 59    
Maximum Humidity 90    
Minimum Humidity 27    
Precipitation  
Precipitation 0.35 in - - ()
Sea Level Pressure  
Sea Level Pressure 29.94 in    
Wind  
Wind Speed 11 mph (SW)    
Max Wind Speed 25 mph    
Max Gust Speed 37 mph    
Visibility 10 miles    
Events Rain , Thunderstorm    
Averages and records for this station are not official NWS values.
T = Trace of Precipitation, MM = Missing Value Source: NWS Daily Summary

Daily Weather History Graph

Daily Weather History Graph

Search for Another Location

Airport:

Trip Planner

Search our weather history database for the weather conditions in past years. The results will help you decide how hot, cold, wet, or windy it might be!

Date:

Astronomy

Oct. 12, 2012 Rise Set
Actual Time 6:21 AM MST 5:46 PM MST
Civil Twilight 5:55 AM MST 6:11 PM MST
Nautical Twilight 5:26 AM MST 6:40 PM MST
Astronomical Twilight 4:57 AM MST 7:09 PM MST
Moon 3:14 AM MST (10/12) 3:52 PM MST (10/12)
Length of Visible Light 12h 15m
Length of Day
11h 25m
Waning Crescent, 10% of the Moon is Illuminated
Oct 12
Waning Crescent
Oct 15
New
Oct 21
First Quarter
Oct 29
Full
Nov 6
Last Quarter

Hourly Weather History & Observations

Time (MST) Temp. Windchill Dew Point Humidity Pressure Visibility Wind Dir Wind Speed Gust Speed Precip Events Conditions
12:54 AM 52.0 °F - 39.0 °F 61% 29.83 in 10.0 mi Calm Calm - N/A   Partly Cloudy
1:54 AM 62.1 °F - 41.0 °F 46% 29.78 in 10.0 mi SSE 21.9 mph 32.2 mph N/A   Clear
2:54 AM 57.0 °F - 44.1 °F 62% 29.80 in 10.0 mi SE 17.3 mph - 0.00 in Rain Light Rain
3:54 AM 55.0 °F - 46.0 °F 72% 29.81 in 10.0 mi SSE 5.8 mph - 0.01 in Rain Light Rain
4:15 AM 53.6 °F - 46.4 °F 77% 30.00 in 10.0 mi WSW 3.5 mph - 0.00 in Thunderstorm Overcast
4:49 AM 51.8 °F - 44.6 °F 76% 30.04 in 10.0 mi SSW 12.7 mph 19.6 mph 0.05 in Rain , Thunderstorm Light Thunderstorms and Rain
4:54 AM 52.0 °F - 46.0 °F 80% 29.84 in 5.0 mi South 10.4 mph 25.3 mph 0.09 in Rain , Thunderstorm Heavy Thunderstorms and Rain
5:26 AM 51.8 °F - 46.4 °F 82% 30.04 in 10.0 mi SSW 5.8 mph - 0.00 in Rain Light Rain
5:54 AM 51.1 °F - 46.9 °F 86% 29.87 in 10.0 mi ESE 6.9 mph - 0.00 in   Mostly Cloudy
6:54 AM 52.0 °F - 48.0 °F 86% 29.89 in 10.0 mi WSW 6.9 mph - N/A   Mostly Cloudy
7:54 AM 54.0 °F - 46.9 °F 77% 29.90 in 10.0 mi WSW 5.8 mph - 0.00 in   Mostly Cloudy
8:54 AM 59.0 °F - 44.1 °F 58% 29.91 in 10.0 mi SW 20.7 mph 27.6 mph N/A   Clear
9:54 AM 61.0 °F - 42.1 °F 50% 29.90 in 10.0 mi WSW 25.3 mph 32.2 mph N/A   Clear
10:54 AM 62.1 °F - 37.9 °F 41% 29.90 in 10.0 mi WSW 21.9 mph 34.5 mph N/A   Clear
11:54 AM 63.0 °F - 36.0 °F 37% 29.89 in 10.0 mi SW 19.6 mph 31.1 mph N/A   Clear
12:54 PM 64.0 °F - 30.9 °F 29% 29.87 in 10.0 mi WSW 25.3 mph 35.7 mph N/A   Clear
1:54 PM 64.0 °F - 28.9 °F 27% 29.85 in 10.0 mi SW 21.9 mph 36.8 mph N/A   Clear
2:54 PM 62.6 °F - 30.2 °F 30% 30.08 in 10.0 mi WSW 21.9 mph 36.8 mph N/A   Partly Cloudy
3:54 PM 61.0 °F - 28.9 °F 30% 29.90 in 10.0 mi SW 19.6 mph 29.9 mph N/A   Clear
4:54 PM 59.0 °F - 25.0 °F 27% 29.92 in 10.0 mi WSW 16.1 mph 26.5 mph N/A   Clear
5:54 PM 55.0 °F - 28.0 °F 35% 29.95 in 10.0 mi SW 16.1 mph 20.7 mph N/A   Clear
6:54 PM 51.8 °F - 30.2 °F 44% 30.13 in 10.0 mi WSW 9.2 mph - N/A   Clear
7:54 PM 48.9 °F - 33.1 °F 54% 30.00 in 10.0 mi Calm Calm - N/A   Clear
8:54 PM 43.0 °F 38.8 °F 33.1 °F 68% 30.02 in 10.0 mi SSW 6.9 mph - N/A   Clear
9:54 PM 46.0 °F 41.4 °F 33.1 °F 61% 30.00 in 10.0 mi WSW 9.2 mph - N/A   Clear
10:54 PM 43.0 °F 37.7 °F 34.0 °F 71% 30.02 in 10.0 mi WSW 9.2 mph - N/A   Clear
11:54 PM 42.1 °F 38.4 °F 34.0 °F 73% 30.02 in 10.0 mi WSW 5.8 mph - N/A   Clear